{"data":{"norad_id":61519,"epoch":"2026-05-24T23:58:30.792864Z","epoch_age_seconds":75433,"freshness":"FRESH","line1":"1 61519U 24183L   26144.99896751 -.00001684  00000+0 -29264-4 0  9998","line2":"2 61519  53.1599 145.2996 0001222  82.5381 277.5764 15.42147368 91375","mean_motion":15.42147368,"eccentricity":0.0001222,"inclination_deg":53.1599,"raan_deg":145.2996,"arg_perigee_deg":82.5381,"mean_anomaly_deg":277.5764,"bstar":-2.9264e-5,"rev_number":9137,"period_min":93.37629009266,"perigee_km":438.93973598662,"apogee_km":440.60603316241,"semimajor_km":6817.9098845745,"source":"CELESTRAK","updated_at":"2026-05-25T13:38:19.392973Z"}}